This is the latest recevied weather packets stored in our database for station/object WP4NYS-13. If no packets are shown the sender has not sent any weather packets the latest 10 day(s).
| Time | Temp. | Humidity | Pressure | Rain* | Wind** | Luminosity | Snow |
|---|---|---|---|---|---|---|---|
| 1777747711 | 21.11° C | 92% | 1010.5 hPa | 0 mm | - | - | - |
| 1777747406 | 21.11° C | 92% | 1010.6 hPa | 0 mm | - | - | - |
| 1777747103 | 21.11° C | 92% | 1010.8 hPa | 0 mm | - | - | - |
| 1777746800 | 21.11° C | 92% | 1011 hPa | 0 mm | - | - | - |
| 1777746494 | 20.56° C | 92% | 1010.9 hPa | 0 mm | - | - | - |
| 1777746190 | 20.56° C | 92% | 1010.8 hPa | 0 mm | - | - | - |
| 1777745887 | 20.56° C | 93% | 1010.8 hPa | 0 mm | - | - | - |
| 1777745586 | 20.56° C | 93% | 1010.6 hPa | 0 mm | - | - | - |
| 1777745283 | 20.56° C | 94% | 1010.6 hPa | 0 mm | - | - | - |
| 1777744981 | 20.56° C | 93% | 1010.9 hPa | 0 mm | - | - | - |
| 1777744676 | 20.56° C | 93% | 1011.1 hPa | 0 mm | - | - | - |
| 1777744370 | 20.56° C | 94% | 1011.1 hPa | 0 mm | - | - | - |
| 1777744067 | 20.56° C | 94% | 1011.2 hPa | 0 mm | - | - | - |
| 1777743765 | 20.56° C | 94% | 1010.9 hPa | 0 mm | - | - | - |
| 1777743462 | 20° C | 94% | 1011 hPa | 0 mm | - | - | - |
| 1777743159 | 20° C | 94% | 1010.6 hPa | 0 mm | - | - | - |
| 1777742857 | 20° C | 93% | 1010.8 hPa | 1.78 mm | - | - | - |
| 1777742553 | 20.56° C | 92% | 1010.9 hPa | 0 mm | - | - | - |
| 1777742249 | 20.56° C | 92% | 1011.4 hPa | 0 mm | - | - | - |
| 1777741946 | 20.56° C | 92% | 1011.3 hPa | 0 mm | - | - | - |
| 1777741643 | 21.11° C | 92% | 1011.8 hPa | 0 mm | - | - | - |
| 1777741340 | 21.11° C | 92% | 1011.6 hPa | 0 mm | - | - | - |
| 1777741035 | 21.11° C | 92% | 1011.7 hPa | 0 mm | - | - | - |
| 1777740733 | 21.67° C | 94% | 1011.4 hPa | 1.27 mm | - | - | - |
| 1777740429 | 21.67° C | 96% | 1010.4 hPa | 3.05 mm | - | - | - |
* Rain latest hour (hover to see other rain measurements)
** Current wind speed in m/s (hover to see current wind gust speed)